Weather History for KCOD - April, 2013

Change the Weather History Date:

Friday, April 5, 2013

  Actual Average Record
Temperature  
Mean Temperature 52 °F -  
Max Temperature 59 °F 56 °F 75 °F (1944)
Min Temperature 46 °F 30 °F -6 °F (1936)
Degree Days  
Heating Degree Days 12    
Growing Degree Days 2 (Base 50)    
Moisture  
Dew Point 30 °F    
Average Humidity 43    
Maximum Humidity 54    
Minimum Humidity 25    
Precipitation  
Precipitation 0.00 in - - ()
Sea Level Pressure  
Sea Level Pressure 29.77 in    
Wind  
Wind Speed 12 mph (WSW)    
Max Wind Speed 31 mph    
Max Gust Speed 44 mph    
Visibility 10 miles    
Events      
Averages and records for this station are not official NWS values.
T = Trace of Precipitation, MM = Missing Value Source: NWS Daily Summary

Daily Weather History Graph

Daily Weather History Graph

Search for Another Location

Airport or City:

Trip Planner

Search our weather history database for the weather conditions in past years. The results will help you decide how hot, cold, wet, or windy it might be!

Date:

Astronomy

Apr. 05, 2013 Rise Set
Actual Time 6:49 AM MDT 7:48 PM MDT
Civil Twilight 6:19 AM MDT 8:18 PM MDT
Nautical Twilight 5:44 AM MDT 8:54 PM MDT
Astronomical Twilight 5:07 AM MDT 9:31 PM MDT
Moon 4:09 AM MDT (4/5) 3:06 PM MDT (4/5)
Length of Visible Light 13h 59m
Length of Day
12h 59m
Waning Crescent, 23% of the Moon is Illuminated
Apr 5
Waning Crescent
Apr 10
New
Apr 18
First Quarter
Apr 25
Full
May 2
Last Quarter

Hourly Weather History & Observations

Time (MDT) Temp. Windchill Dew Point Humidity Pressure Visibility Wind Dir Wind Speed Gust Speed Precip Events Conditions
12:55 AM 51.8 °F - 32.0 °F 47% 29.82 in 10.0 mi SW 6.9 mph - N/A   Partly Cloudy
1:15 AM 48.2 °F - 32.0 °F 54% 29.82 in 10.0 mi SW 5.8 mph - N/A   Partly Cloudy
1:55 AM 51.8 °F - 30.2 °F 44% 29.82 in 10.0 mi SSW 11.5 mph - N/A   Partly Cloudy
2:15 AM 55.4 °F - 30.2 °F 38% 29.81 in 10.0 mi SW 9.2 mph - N/A   Clear
2:35 AM 51.8 °F - 30.2 °F 44% 29.81 in 10.0 mi SSW 13.8 mph - N/A   Clear
2:55 AM 51.8 °F - 32.0 °F 47% 29.81 in 10.0 mi SW 10.4 mph - N/A   Clear
3:15 AM 53.6 °F - 32.0 °F 44% 29.81 in 10.0 mi SSW 12.7 mph - N/A   Clear
4:15 AM 53.6 °F - 33.8 °F 47% 29.80 in 10.0 mi WSW 9.2 mph - N/A   Partly Cloudy
4:35 AM 53.6 °F - 35.6 °F 51% 29.79 in 10.0 mi West 17.3 mph 24.2 mph N/A   Scattered Clouds
4:55 AM 53.6 °F - 35.6 °F 51% 29.80 in 10.0 mi WSW 15.0 mph 20.7 mph N/A   Mostly Cloudy
5:35 AM 53.6 °F - 35.6 °F 51% 29.78 in 10.0 mi WSW 15.0 mph 21.9 mph N/A   Overcast
5:55 AM 53.6 °F - 33.8 °F 47% 29.78 in 10.0 mi WSW 12.7 mph 24.2 mph N/A   Overcast
6:15 AM 53.6 °F - 33.8 °F 47% 29.78 in 10.0 mi West 12.7 mph 23.0 mph N/A   Overcast
6:35 AM 53.6 °F - 33.8 °F 47% 29.77 in 10.0 mi WSW 13.8 mph 20.7 mph N/A   Overcast
6:55 AM 53.6 °F - 33.8 °F 47% 29.77 in 10.0 mi WSW 13.8 mph 21.9 mph N/A   Overcast
7:15 AM 53.6 °F - 33.8 °F 47% 29.78 in 10.0 mi West 13.8 mph 24.2 mph N/A   Overcast
7:35 AM 53.6 °F - 33.8 °F 47% 29.79 in 10.0 mi West 13.8 mph 19.6 mph N/A   Overcast
7:55 AM 51.8 °F - 35.6 °F 54% 29.79 in 10.0 mi West 11.5 mph - N/A   Overcast
8:15 AM 51.8 °F - 35.6 °F 54% 29.77 in 10.0 mi WSW 13.8 mph 24.2 mph N/A   Overcast
8:55 AM 51.8 °F - 33.8 °F 50% 29.75 in 10.0 mi West 17.3 mph 21.9 mph N/A   Overcast
9:15 AM 53.6 °F - 33.8 °F 47% 29.75 in 10.0 mi WSW 11.5 mph 17.3 mph N/A   Mostly Cloudy
9:35 AM 53.6 °F - 35.6 °F 51% 29.75 in 10.0 mi NW 5.8 mph 18.4 mph N/A   Overcast
9:55 AM 53.6 °F - 33.8 °F 47% 29.75 in 10.0 mi West 11.5 mph - N/A   Mostly Cloudy
10:15 AM 53.6 °F - 35.6 °F 51% 29.74 in 10.0 mi Calm Calm - N/A   Partly Cloudy
10:35 AM 55.4 °F - 33.8 °F 44% 29.73 in 10.0 mi West 15.0 mph 20.7 mph N/A   Mostly Cloudy
10:55 AM 55.4 °F - 32.0 °F 41% 29.73 in 10.0 mi WSW 12.7 mph 17.3 mph N/A   Mostly Cloudy
11:15 AM 55.4 °F - 32.0 °F 41% 29.73 in 10.0 mi West 12.7 mph 21.9 mph N/A   Scattered Clouds
11:35 AM 57.2 °F - 32.0 °F 38% 29.73 in 10.0 mi West 9.2 mph - N/A   Scattered Clouds
11:55 AM 57.2 °F - 32.0 °F 38% 29.72 in 10.0 mi West 9.2 mph 18.4 mph N/A   Partly Cloudy
12:15 PM 57.2 °F - 30.2 °F 36% 29.72 in 10.0 mi West 12.7 mph - N/A   Clear
12:35 PM 59.0 °F - 30.2 °F 34% 29.71 in 10.0 mi West 12.7 mph - N/A   Scattered Clouds
12:55 PM 59.0 °F - 30.2 °F 34% 29.71 in 10.0 mi West 10.4 mph - N/A   Mostly Cloudy
1:15 PM 57.2 °F - 30.2 °F 36% 29.70 in 10.0 mi WSW 15.0 mph 21.9 mph N/A   Overcast
1:35 PM 57.2 °F - 30.2 °F 36% 29.70 in 10.0 mi West 10.4 mph 21.9 mph N/A   Overcast
1:55 PM 57.2 °F - 28.4 °F 33% 29.70 in 10.0 mi West 11.5 mph 23.0 mph N/A   Overcast
2:15 PM 57.2 °F - 26.6 °F 31% 29.70 in 10.0 mi West 19.6 mph 25.3 mph N/A   Overcast
2:35 PM 57.2 °F - 24.8 °F 29% 29.70 in 10.0 mi West 17.3 mph 26.5 mph N/A   Mostly Cloudy
3:15 PM 59.0 °F - 23.0 °F 25% 29.70 in 10.0 mi West 21.9 mph 34.5 mph N/A   Overcast
3:35 PM 57.2 °F - 23.0 °F 27% 29.70 in 10.0 mi WSW 19.6 mph 29.9 mph N/A   Mostly Cloudy
4:15 PM 57.2 °F - 24.8 °F 29% 29.71 in 10.0 mi WSW 23.0 mph 43.7 mph N/A   Mostly Cloudy
4:35 PM 55.4 °F - 26.6 °F 33% 29.72 in 10.0 mi West 24.2 mph 29.9 mph N/A   Partly Cloudy
4:55 PM 55.4 °F - 26.6 °F 33% 29.74 in 10.0 mi West 13.8 mph 24.2 mph N/A   Scattered Clouds
5:15 PM 53.6 °F - 26.6 °F 35% 29.75 in 10.0 mi West 31.1 mph 40.3 mph N/A   Scattered Clouds
5:35 PM 51.8 °F - 30.2 °F 44% 29.75 in 10.0 mi WSW 18.4 mph 35.7 mph N/A   Scattered Clouds
5:55 PM 48.2 °F - 30.2 °F 50% 29.77 in 10.0 mi West 20.7 mph 31.1 mph N/A   Partly Cloudy
6:15 PM 48.2 °F - 30.2 °F 50% 29.77 in 10.0 mi West 19.6 mph 29.9 mph N/A   Clear
6:35 PM 50.0 °F - 30.2 °F 47% 29.78 in 10.0 mi West 13.8 mph 20.7 mph N/A   Clear
6:55 PM 51.8 °F - 28.4 °F 41% 29.78 in 10.0 mi West 12.7 mph 21.9 mph N/A   Clear
7:35 PM 51.8 °F - 26.6 °F 38% 29.79 in 10.0 mi WSW 18.4 mph 25.3 mph N/A   Clear
7:55 PM 50.0 °F - 26.6 °F 40% 29.80 in 10.0 mi West 13.8 mph 23.0 mph N/A   Clear
8:15 PM 50.0 °F - 26.6 °F 40% 29.81 in 10.0 mi WNW 10.4 mph 26.5 mph N/A   Clear
8:55 PM 46.4 °F 39.8 °F 30.2 °F 53% 29.83 in 10.0 mi WSW 16.1 mph 26.5 mph N/A   Clear
9:15 PM 48.2 °F - 28.4 °F 46% 29.84 in 10.0 mi West 10.4 mph 18.4 mph N/A   Clear
9:35 PM 48.2 °F - 28.4 °F 46% 29.85 in 10.0 mi West 17.3 mph 28.8 mph N/A   Clear
9:55 PM 48.2 °F - 28.4 °F 46% 29.86 in 10.0 mi West 11.5 mph 23.0 mph N/A   Clear
10:15 PM 48.2 °F - 28.4 °F 46% 29.86 in 10.0 mi West 10.4 mph 16.1 mph N/A   Clear
10:35 PM 48.2 °F - 26.6 °F 43% 29.86 in 10.0 mi WNW 5.8 mph - N/A   Clear
10:55 PM 48.2 °F - 26.6 °F 43% 29.86 in 10.0 mi West 5.8 mph - N/A   Partly Cloudy
11:15 PM 48.2 °F - 26.6 °F 43% 29.86 in 10.0 mi West 12.7 mph 19.6 mph N/A   Clear
11:35 PM 48.2 °F - 26.6 °F 43% 29.87 in 10.0 mi WNW 11.5 mph - N/A   Clear
11:55 PM 46.4 °F 39.5 °F 30.2 °F 53% 29.86 in 10.0 mi West 17.3 mph 26.5 mph N/A   Clear